www.pogodaiklimat.ru

Погода и климат >> Архив погоды >> Финляндия >> Варкаус


ПОГОДА в Варкаусе

  • Прогноз погоды в Варкаусе
  • Монитор погоды в Варкаусе

АРХИВ ПОГОДЫ в Варкаусе

Время (UTC), дата Ветер
(напр.,м/с)
 
Видим.   Явления Облачность Т
(С)
Тd
(С)
f
(%)
Тe
(С)
Тes
(С)
Комфортность P
(гПа)
Po
(гПа)
Тmin
(С)
Tmax
(С)
R
(мм)
R24
(мм)
S
(см)
00 14.06 В 3 50 км 10/10 1000 м
[]
+12.4 +7.4 72 +11 +11 1019.6 1009.3
03 14.06 В 3 50 км 10/8 1500 м
[]
+12.3 +8.6 78 +11 +11 1018.2 1008.0
06 14.06 В 3 50 км 9/9 1500 м
[]
+13.2 +8.4 73 +12 +13 1018.6 1008.4 +11.9 +13.7
09 14.06 ЮВ 3 40 км 1/1 600 м
[]
+16.4 +9.4 63 +16 +26 1018.6 1008.5
12 14.06 ЮВ 3 40 км ясно +17.7 +8.6 55 +18 +28 1018.2 1008.1
15 14.06 ЮВ 2 50 км 4/4
[]
+17.7 +9.5 59 +18 +21 1016.4 1006.4
18 14.06 Ю 2 50 км 10/10 1000 м
[]
+16.0 +9.4 65 +16 +16 1015.4 1005.3 +13.2 +18.9
21 14.06 ЮВ 1 10 км дождь 10/10 600 м
[]
+13.3 +12.3 94 +13 +13 1014.9 1004.8
00 15.06 В 1 5000 м сильн. морось 10/10 100 м
[]
+12.4 +12.4 100 +12 +12 1014.2 1004.0
03 15.06 ЮВ 1 18 км в посл. час морось 10/10 100 м
[]
+12.0 +12.0 100 +12 +12 1013.6 1003.4
06 15.06 СВ 2 6000 м в посл. час морось 10/10 100 м
[]
+12.1 +12.0 99 +11 +11 1013.8 1003.6 +11.8 +16.1 8
09 15.06 СВ 3 10 км 10/10 100 м
[]
+13.2 +12.6 96 +12 +12 1014.8 1004.6
12 15.06 С 1 40 км 6/1 600 м
[]
+15.8 +11.5 76 +17 +26 1015.4 1005.3
15 15.06 СВ 1 50 км ясно +18.3 +11.8 66 +20 +26 1014.9 1004.9
18 15.06 З 2 50 км ясно +18.2 +12.2 68 +19 +19 1014.7 1004.7 +12.1 +19.6
21 15.06 ЮЗ 3 29 км ясно +13.8 +12.9 94 +13 +13 1014.9 1004.7
00 16.06 ЮЗ 2 11 км ясно +12.2 +12.1 99 +11 +11 1014.8 1004.6
03 16.06 ЮЗ 1 40 км ясно +13.7 +12.1 90 +14 +15 1014.6 1004.4
06 16.06 СЗ 1 45 км ясно +18.5 +9.7 57 +20 +28 1014.5 1004.5 +11.4 +18.8
09 16.06 СЗ 2 40 км ясно +21.6 +6.3 37 +22 +35 комфорт 1013.8 1004.0
12 16.06 СЗ 2 40 км 5/5 2000 м
[]
+23.4 +8.8 39 +25 +31 комфорт 1012.5 1002.7
15 16.06 З 4 45 км 1/1 2000 м
[]
+24.8 +7.3 33 +25 +28 комфорт 1011.3 1001.5
18 16.06 ЮЗ 2 50 км ясно +22.4 +9.9 45 +24 +25 комфорт 1010.7 1000.9 +18.5 +25.0
21 16.06 Ю 1 50 км ясно +15.4 +12.3 82 +16 +16 1010.9 1000.8
00 17.06 ЮЗ 1 40 км 6/6 2000 м
[]
+13.4 +12.7 96 +13 +13 1010.8 1000.7
03 17.06 СЗ 1 45 км ясно +16.6 +12.4 76 +17 +19 1010.6 1000.6
06 17.06 СВ 1 35 км ясно +20.8 +11.8 56 +24 +32 комфорт 1010.9 1001.0 +12.8 +22.4
09 17.06 В 2 35 км ясно +23.7 +9.7 41 +25 +38 комфорт 1010.3 1000.5
12 17.06 ЮЗ 2 45 км 5/5 1500 м
[]
+25.0 +8.4 35 +25 +31 комфорт 1009.6 999.9
15 17.06 ЮЗ 3 28 км 1/1 1500 м
[]
+25.4 +12.1 43 +27 +31 жарко 1008.7 999.0
18 17.06 ЮЗ 5 45 км 9/9
[]
+21.1 +12.2 57 +23 +23 комфорт 1008.9 999.1 +20.5 +26.0
21 17.06 З 2 50 км слаб. дождь 9/9 2000 м
[]
+18.0 +14.0 77 +19 +19 1009.0 999.1
00 18.06 ЮЗ 2 21 км ясно +14.7 +13.7 94 +14 +14 1009.2 999.1
03 18.06 ЮЗ 2 17 км ясно +16.4 +12.6 78 +17 +18 1009.0 999.0
06 18.06 З 3 35 км ясно +20.2 +12.1 60 +22 +28 комфорт 1009.1 999.3 +14.0 +21.1
09 18.06 З 4 30 км 1/1 1000 м
[]
+23.6 +10.6 44 +25 +33 комфорт 1009.9 1000.1
12 18.06 З 4 35 км 4/4 2000 м
[]
+25.5 +8.3 34 +26 +31 жарко 1010.0 1000.3
15 18.06 ЮЗ 5 50 км 1/1 2000 м
[]
+25.9 +8.6 33 +26 +29 жарко 1009.8 1000.1
18 18.06 З 6 50 км ясно +24.2 +8.9 38 +25 +25 комфорт 1010.0 1000.3 +20.1 +26.9
21 18.06 ЮЗ 4 50 км ясно +19.8 +8.6 48 +21 +21 комфорт 1011.2 1001.3
00 19.06 ЮЗ 4 40 км ясно +16.6 +9.7 64 +16 +16 1012.0 1001.9
03 19.06 ЮЗ 4 45 км ясно +17.0 +11.2 69 +17 +17 1011.7 1001.7
06 19.06 ЮЗ 4 22 км 1/1 1500 м
[]
+19.6 +12.4 63 +21 +25 комфорт 1011.5 1001.6 +15.8 +24.2
09 19.06 ЮЗ 5 18 км ясно +22.6 +12.2 52 +25 +32 комфорт 1010.8 1001.0
12 19.06 ЮЗ 7 28 км 3/3 1000 м
[]
+25.0 +12.3 45 +27 +29 жарко 1009.9 1000.2
15 19.06 ЮЗ 5 40 км 4/4 1500 м
[]
+23.3 +13.3 53 +26 +28 жарко 1009.6 999.8
18 19.06 ЮЗ 3 11 км ясно +21.2 +15.7 71 +24 +25 комфорт 1010.1 1000.3 +19.1 +25.1
21 19.06 ЮЗ 3 50 км 3/3 1000 м
[]
+17.9 +13.8 77 +18 +18 1011.1 1001.1
00 20.06 ЮЗ 1 23 км ясно +14.1 +13.2 94 +14 +14 1011.9 1001.8
03 20.06 СЗ 1 45 км ясно +16.9 +12.7 76 +18 +19 1012.4 1002.4
06 20.06 СВ 1 40 км 1/1
[]
+20.1 +12.4 61 +23 +30 комфорт 1012.8 1002.9 +13.6 +21.2
09 20.06 Ю 2 35 км 3/3
[]
+22.1 +10.1 46 +24 +33 комфорт 1012.6 1002.7
12 20.06 ЮЗ 2 40 км 1/1 2000 м
[]
+24.1 +13.2 51 +26 +37 жарко 1012.1 1002.4
15 20.06 С 1 45 км 1/1
[]
+24.5 +12.7 48 +26 +32 жарко 1010.9 1001.2
18 20.06 ЮВ 2 45 км ясно +22.7 +14.7 61 +26 +27 жарко 1010.3 1000.5 +19.7 +25.4

 

Местоположение метеостанции Варкаус (Финляндия): широта 62.32 долгота 27.91 высота над уровнем моря 83 м.

В архиве по умолчанию представлена погода в Варкаусе за последнюю неделю. Архивные данные за месяц целиком и за предыдущие месяцы, начиная с января 2011 года, Вы можете получить, выбрав интересующий диапазон дат из раскрывающегося списка и нажав кнопку "Ввод!".


*Определитесь, кто Вы:
робот инопланетянин человек

Внимание! Время в таблицах - всемирное. Для получения местного времени необходимо прибавить поправку, которая равна 1 ч.

Смотрите также архив погоды в соседних городах и на ближайших метеорологических станциях:

Погода в Рантасалми Руккаслю (Финляндия) (45 км)
Погода в Юве (Финляндия) (48 км)
Погода в Куопио Ритониеми (Финляндия) (53 км)
Погода в Куопио Савилахти (Финляндия) (65 км)
Погода в Савонлинне (Финляндия) (67 км)
Погода в Аэропорту Куопио (Финляндия) (77 км)
Погода в Миккели (Финляндия) (79 км)
Погода в Пуумале (Финляндия) (90 км)
Погода в Лаукансаари (Финляндия) (94 км)
Погода в Липери Туискаванлуото (Финляндия) (94 км)

Пояснения к столбцам:

Ветер - указаны скорость ветра в м/с - средняя за 10 мин, порывы в срок и между сроками (в фигурных скобках) и направление, откуда дует ветер: С - северный, СВ - северо-восточный, В - восточный, ЮВ - юго-восточный, Ю - южный, ЮЗ - юго-западный, З - западный, СЗ - северо-западный.
Видимость - горизонтальная дальность видимости в метрах или километрах. При видимости от 1 до 10 км при отсутствии осадков обычно наблюдается дымка, при ухудшении видимости до 1 км и менее - туман. В сухую погоду видимость может ухудшаться дымом, пылью или мглою.
Явления - указаны атмосферные явления, наблюдавшиеся в срок или в последний час перед сроком; фигурными скобками обозначены явления, наблюдавшиеся между сроками (за 1-3 часа до срока); квадратными скобками обозначены град или гололедные отложения с указанием их диаметра в мм.
Облачность - указаны через наклонную черту общая и нижняя облачность в баллах и высота нижней границы облаков в метрах; квадратными скобками обозначены формы облаков: Ci - перистые, Cs - перисто-слоистые, Cc - перисто-кучевые, Ac - высококучевые, As - высокослоистые, Sc - слоисто-кучевые, Ns - слоисто-дождевые, Cu - кучевые, Cb - кучево-дождевые. Подробнее классификацию облаков см. в Атласе облаков (PDF).
T - Температура воздуха - температура, измеренная на высоте 2 м над землей.
Td - Температура точки росы - температура, при понижении до которой содержащийся в воздухе водяной пар достигнет насыщения.
f - Относительная влажность воздуха - влажноcть воздуха, измеренная на высоте 2 м над землей.
Te - Эффективная температура - температура, которую ощущает одетый по сезону человек в тени. Характеристика душности погоды. При расчете учитывается влияние влажности воздуха и скорости ветра на теплоощущения человека.
Tes - Эффективная температура на солнце - температура, которую ощущает человек, с поправкой на солнечный нагрев. Характеристика знойности погоды. Зависит от высоты солнца над горизонтом, облачности и скорости ветра. Ночью, в пасмурную погоду, а также при ветре 12 м/с и более поправка равна нулю.
P - Атмосферное давление - приведенное к уровню моря атмосферное давление.
Po - Атмосферное давление - измеренное на уровне метеостанции атмосферное давление.
Tmin - Минимальная температура - минимум температуры воздуха на высоте 2 м над землей.
Tmax - Максимальная температура - максимум температуры воздуха на высоте 2 м над землей.
R - Количество осадков - Количество выпавших осадков за период времени, мм. При наведении курсора мыши на число - период времени, за который выпало указанное количество осадков.
R24 - Количество осадков - Количество выпавших осадков за 24 часа, мм.
S - Снежный покров - Высота снежного покрова, см. При наведении курсора мыши на число - состояние снежного покрова и степень покрытия местности в баллах.